Weather History for KRND - September, 2013

Change the Weather History Date:

Thursday, September 19, 2013

  Actual Average Record
Temperature  
Mean Temperature 82 °F -  
Max Temperature 90 °F 86 °F 95 °F (1997)
Min Temperature 74 °F 67 °F 58 °F (2008)
Cooling Degree Days 17    
Growing Degree Days 32 (Base 50)    
Moisture  
Dew Point 73 °F    
Average Humidity 82    
Maximum Humidity 94    
Minimum Humidity 53    
Precipitation  
Precipitation 0.06 in - - ()
Sea Level Pressure  
Sea Level Pressure 29.91 in    
Wind  
Wind Speed 5 mph (East)    
Max Wind Speed 18 mph    
Max Gust Speed 29 mph    
Visibility 9 miles    
Events Rain    
Averages and records for this station are not official NWS values.
T = Trace of Precipitation, MM = Missing Value Source: NWS Daily Summary

Daily Weather History Graph

Daily Weather History Graph

Search for Another Location

Airport or City:

Trip Planner

Search our weather history database for the weather conditions in past years. The results will help you decide how hot, cold, wet, or windy it might be!

Date:

Astronomy

Sep. 19, 2013 Rise Set
Actual Time 7:20 AM CDT 7:33 PM CDT
Civil Twilight 6:56 AM CDT 7:56 PM CDT
Nautical Twilight 6:28 AM CDT 8:24 PM CDT
Astronomical Twilight 6:00 AM CDT 8:52 PM CDT
Moon 7:38 PM CDT (9/19) 7:26 AM CDT (9/19)
Length of Visible Light 13h 00m
Length of Day
12h 12m
Full, 100% of the Moon is Illuminated
Sep 19
Full
Sep 26
Last Quarter
Oct 4
New
Oct 11
First Quarter
Oct 18
Full

Hourly Weather History & Observations

Time (CDT) Temp. Heat Index Dew Point Humidity Pressure Visibility Wind Dir Wind Speed Gust Speed Precip Events Conditions
12:58 AM 74.7 °F - 72.0 °F 91% 29.94 in 10.0 mi NE 2.3 mph - N/A   Clear
1:58 AM 74.7 °F - 71.6 °F 90% 29.93 in 10.0 mi ENE 2.3 mph - N/A   Partly Cloudy
2:58 AM 74.5 °F - 71.8 °F 91% 29.92 in 10.0 mi ENE 2.3 mph - N/A   Clear
3:28 AM 75.2 °F - 71.6 °F 89% 29.93 in 10.0 mi East 2.3 mph - N/A   Scattered Clouds
3:58 AM 74.3 °F - 71.8 °F 92% 29.91 in 10.0 mi ENE 4.6 mph - N/A   Partly Cloudy
4:58 AM 74.3 °F - 72.0 °F 92% 29.91 in 10.0 mi ENE 4.6 mph - N/A   Partly Cloudy
5:58 AM 74.5 °F - 72.1 °F 92% 29.90 in 10.0 mi ENE 4.6 mph - N/A   Clear
6:58 AM 74.5 °F - 72.3 °F 93% 29.91 in 10.0 mi East 3.5 mph - N/A   Mostly Cloudy
7:48 AM 75.2 °F - 73.4 °F 94% 29.94 in 10.0 mi ENE 5.8 mph - N/A   Overcast
7:58 AM 74.8 °F - 72.7 °F 93% 29.92 in 10.0 mi ENE 4.6 mph - N/A   Overcast
8:13 AM 75.2 °F - 73.4 °F 94% 29.94 in 10.0 mi ENE 3.5 mph - N/A   Overcast
8:33 AM 75.2 °F - 73.4 °F 94% 29.95 in 10.0 mi East 4.6 mph - N/A   Overcast
8:58 AM 75.9 °F - 73.6 °F 92% 29.93 in 10.0 mi East 5.8 mph - N/A   Overcast
9:58 AM 77.5 °F - 74.5 °F 90% 29.94 in 10.0 mi East 6.9 mph - N/A   Overcast
10:31 AM 78.8 °F - 75.2 °F 89% 29.96 in 10.0 mi East 8.1 mph - N/A   Overcast
10:41 AM 80.6 °F 86.2 °F 75.2 °F 84% 29.96 in 10.0 mi East 9.2 mph - N/A   Overcast
10:47 AM 80.6 °F 86.2 °F 75.2 °F 84% 29.96 in 10.0 mi ESE 9.2 mph - N/A   Overcast
10:52 AM 80.6 °F 86.2 °F 75.2 °F 84% 29.96 in 10.0 mi SE 9.2 mph - N/A   Overcast
10:58 AM 80.6 °F 86.2 °F 75.2 °F 84% 29.96 in 10.0 mi ESE 9.2 mph - N/A   Overcast
11:15 AM 82.4 °F 88.2 °F 73.4 °F 74% 29.96 in 10.0 mi East 10.4 mph - N/A   Overcast
11:27 AM 82.4 °F 88.2 °F 73.4 °F 74% 29.96 in 10.0 mi ESE 8.1 mph - N/A   Overcast
11:46 AM 82.4 °F 88.2 °F 73.4 °F 74% 29.96 in 10.0 mi ESE 10.4 mph - N/A   Overcast
11:55 AM 84.2 °F 90.9 °F 73.4 °F 70% 29.96 in 10.0 mi ESE 10.4 mph - N/A   Mostly Cloudy
1:00 PM 86.0 °F 91.8 °F 71.6 °F 62% 29.93 in 10.0 mi ESE 5.8 mph - N/A   Mostly Cloudy
1:24 PM 86.0 °F 91.8 °F 71.6 °F 62% 29.92 in 10.0 mi SE 4.6 mph - N/A Rain Light Rain
1:49 PM 82.4 °F 89.5 °F 75.2 °F 79% 29.93 in 0.8 mi SE 18.4 mph 28.8 mph N/A Rain Rain
1:53 PM 78.8 °F - 73.4 °F 83% 29.92 in 0.8 mi East 9.2 mph 28.8 mph N/A Rain Heavy Rain
1:57 PM 77.0 °F - 71.6 °F 83% 29.92 in 0.8 mi East 9.2 mph 28.8 mph N/A Rain Rain
2:13 PM 78.8 °F - 71.6 °F 78% 29.91 in 7.0 mi SSE 5.8 mph - N/A Rain Light Rain
2:22 PM 78.8 °F - 73.4 °F 83% 29.90 in 7.0 mi Variable 1.2 mph - N/A Rain Light Rain
2:58 PM 85.5 °F 93.0 °F 73.9 °F 68% 29.86 in 10.0 mi Variable 5.8 mph - 0.06 in   Mostly Cloudy
3:58 PM 88.7 °F 94.8 °F 71.2 °F 56% 29.84 in 10.0 mi Variable 3.5 mph - N/A   Mostly Cloudy
4:58 PM 90.5 °F 97.0 °F 71.2 °F 53% 29.82 in 10.0 mi SE 11.5 mph - N/A   Mostly Cloudy
5:58 PM 88.3 °F 94.5 °F 71.2 °F 57% 29.81 in 10.0 mi SE 11.5 mph 21.9 mph N/A   Partly Cloudy
6:58 PM 80.6 °F 84.4 °F 71.1 °F 73% 29.83 in 10.0 mi East 5.8 mph - N/A   Scattered Clouds
7:03 PM 80.6 °F 84.6 °F 71.6 °F 74% 29.85 in 10.0 mi East 9.2 mph - N/A Rain Light Rain
7:14 PM 78.8 °F - 71.6 °F 78% 29.84 in 10.0 mi East 6.9 mph 19.6 mph N/A   Scattered Clouds
7:17 PM 78.8 °F - 73.4 °F 83% 29.84 in 10.0 mi East 5.8 mph - N/A   Light Drizzle
7:33 PM 78.8 °F - 73.4 °F 83% 29.84 in 10.0 mi East 6.9 mph - N/A   Scattered Clouds
7:58 PM 78.3 °F - 73.2 °F 84% 29.83 in 10.0 mi East 4.6 mph - 0.00 in   Partly Cloudy
9:58 PM 77.4 °F - 73.2 °F 87% 29.87 in 10.0 mi ESE 5.8 mph - N/A   Clear
10:58 PM 76.5 °F - 73.0 °F 89% 29.89 in 10.0 mi ESE 4.6 mph - N/A   Clear
11:58 PM 75.9 °F - 72.9 °F 90% 29.89 in 10.0 mi SE 4.6 mph - N/A   Clear